EW6005 Weather Reports


time (UTC)temp
F
wind
direction
speed
knots
gust
knots
rain 1hr
in
rain 24hr
in
rain mn
in
humidity
%
barometer
mb
20260509223727 87 0 0.0 0.0 0.00 0.00 0.00 75 993.4
20260509223500 88 0 0.0 0.0 0.00 0.00 0.00 74 993.3
20260509222953 88 0 0.0 1.7 0.00 0.00 0.00 74 993.4
20260509222227 88 332 0.9 2.6 0.00 0.00 0.00 74 993.2
20260509221728 88 341 0.9 2.6 0.00 0.00 0.00 74 993.2
20260509221452 88 53 0.0 1.7 0.00 0.00 0.00 74 993.2
20260509220725 88 52 0.0 1.7 0.00 0.00 0.00 75 993.2
20260509220223 88 9 0.0 1.7 0.00 0.00 0.00 75 993.3
20260509215809 88 207 0.0 0.0 0.00 0.00 0.00 73 993.3
20260509214939 88 157 0.0 0.0 0.00 0.00 0.00 74 993.3
20260509214308 88 180 0.0 0.0 0.00 0.00 0.00 73 993.3
20260509213213 88 135 0.0 0.0 0.00 0.00 0.00 71 993.3
20260509212714 89 135 0.0 0.0 0.00 0.00 0.00 73 993.3
20260509212437 89 135 0.0 0.0 0.00 0.00 0.00 73 993.3
20260509211714 89 48 0.0 1.7 0.00 0.00 0.00 72 993.3
20260509211215 88 120 0.0 1.7 0.00 0.00 0.00 73 993.4
20260509210713 88 20 0.0 3.5 0.00 0.00 0.00 72 993.5
20260509210213 89 49 0.9 4.3 0.00 0.00 0.00 72 993.5
20260509205709 89 31 0.9 4.3 0.00 0.00 0.00 72 993.6
20260509205211 88 332 0.0 3.5 0.00 0.00 0.00 73 993.6
20260509204710 88 123 0.9 3.5 0.00 0.00 0.00 73 993.7
20260509204208 88 290 0.0 1.7 0.00 0.00 0.00 73 993.8
20260509203710 88 183 0.0 0.9 0.00 0.00 0.00 75 993.9
20260509203209 88 183 0.0 3.5 0.00 0.00 0.00 73 993.9
20260509202711 88 126 0.0 3.5 0.00 0.00 0.00 74 993.9
20260509202209 88 185 0.9 3.5 0.00 0.00 0.00 74 994.0
20260509201709 87 201 0.9 3.5 0.00 0.00 0.00 73 994.0
20260509201434 88 200 0.9 3.5 0.00 0.00 0.00 73 994.0
20260509200709 88 300 0.9 2.6 0.00 0.00 0.00 75 994.1
20260509200207 87 302 0.9 4.3 0.00 0.00 0.00 75 994.2
20260509195707 87 135 0.9 4.3 0.00 0.00 0.00 75 994.2
20260509195426 87 194 0.0 4.3 0.00 0.00 0.00 74 994.3
20260509194705 87 9 0.0 1.7 0.00 0.00 0.00 75 994.4
20260509194205 88 15 0.9 2.6 0.00 0.00 0.00 76 994.5
20260509193706 88 10 0.9 5.2 0.00 0.00 0.00 76 994.5
20260509193205 88 165 0.9 5.2 0.00 0.00 0.00 76 994.6
20260509192705 88 177 0.9 3.5 0.00 0.00 0.00 75 994.7
20260509192432 88 203 0.9 2.6 0.00 0.00 0.00 76 994.5
20260509191706 87 103 0.9 2.6 0.00 0.00 0.00 78 994.6
20260509191206 87 144 0.9 2.6 0.00 0.00 0.00 78 994.7
20260509190707 87 161 0.9 1.7 0.00 0.00 0.00 78 994.8
20260509190205 87 150 0.0 2.6 0.00 0.00 0.00 79 994.8
20260509185705 86 10 0.0 2.6 0.00 0.00 0.00 78 995.0
20260509185426 86 144 0.0 2.6 0.00 0.00 0.00 78 995.1
20260509184705 86 182 0.9 2.6 0.00 0.00 0.00 78 995.1
20260509184205 87 182 0.9 2.6 0.00 0.00 0.00 78 995.2
20260509183705 87 288 0.9 3.5 0.00 0.00 0.00 78 995.2
20260509183205 87 185 0.9 3.5 0.00 0.00 0.00 79 995.2
20260509182932 86 231 0.9 2.6 0.00 0.00 0.00 79 995.3
20260509182424 86 215 0.9 1.7 0.00 0.00 0.00 80 995.4
20260509181706 85 260 0.9 1.7 0.00 0.00 0.00 81 995.5
20260509181204 85 186 0.9 1.7 0.00 0.00 0.00 81 995.6
20260509180705 85 326 0.9 5.2 0.00 0.00 0.00 82 995.7
20260509180201 85 109 1.7 5.2 0.00 0.00 0.00 81 995.8
20260509175924 84 155 0.9 3.5 0.00 0.00 0.00 84 995.9
20260509175200 84 194 0.0 2.6 0.00 0.00 0.00 85 995.9
20260509174701 84 176 0.0 1.7 0.00 0.00 0.00 84 995.9
20260509174420 84 119 0.0 1.7 0.00 0.00 0.00 85 995.9
20260509173918 83 70 0.0 1.7 0.00 0.00 0.00 85 996.0
20260509173645 83 190 0.0 0.9 0.00 0.00 0.00 87 995.9
20260509172702 83 308 0.0 0.9 0.00 0.00 0.00 87 996.0
20260509172201 83 308 0.0 0.9 0.00 0.00 0.00 87 996.0
20260509171701 83 45 0.0 0.9 0.00 0.00 0.00 87 995.8
20260509171201 83 45 0.0 0.9 0.00 0.00 0.00 88 995.9
20260509170701 82 0 0.0 0.9 0.00 0.00 0.00 88 995.9
20260509170646 82 0 0.9 1.7 0.00 0.00 0.00 88 995.8
20260509165702 82 0 0.9 1.7 0.00 0.00 0.00 88 995.9
20260509165201 82 0 0.9 1.7 0.00 0.00 0.00 89 996.0
20260509164700 82 0 0.0 1.7 0.00 0.00 0.00 90 996.0
20260509164201 81 0 0.0 1.7 0.00 0.00 0.00 91 995.9
20260509163658 81 0 0.9 1.7 0.00 0.00 0.00 92 995.9
20260509163153 80 34 0.0 1.7 0.00 0.00 0.00 91 995.8
20260509162915 80 0 0.9 4.3 0.00 0.00 0.00 92 995.7
20260509162153 80 0 1.7 4.3 0.00 0.00 0.00 93 995.7
20260509161652 79 188 0.9 3.5 0.00 0.00 0.00 93 995.8
20260509161153 79 148 0.0 3.5 0.00 0.00 0.00 93 996.0
20260509160653 78 146 0.9 4.3 0.00 0.00 0.00 94 996.1
20260509160153 78 207 1.7 5.2 0.00 0.00 0.00 93 996.1
20260509155653 78 217 1.7 5.2 0.00 0.00 0.00 93 996.1
20260509155414 78 172 0.9 3.5 0.00 0.00 0.00 94 996.3
20260509155133 78 173 0.9 3.5 0.00 0.00 0.00 94 996.5
20260509154411 78 159 0.9 3.5 0.00 0.00 0.00 95 996.3
20260509153739 78 190 0.9 3.5 0.00 0.00 0.00 95 996.3
20260509152650 78 163 0.9 3.5 0.00 0.00 0.00 96 996.3
20260509152149 77 171 0.9 3.5 0.00 0.00 0.00 96 996.2
20260509152145 77 189 0.0 0.0 0.00 0.00 0.00 97 996.3
20260509151148 77 189 0.0 0.0 0.00 0.00 0.00 97 996.3
20260509150649 77 189 0.0 2.6 0.00 0.00 0.00 97 996.3
20260509150144 77 167 0.0 2.6 0.00 0.00 0.00 97 996.2
20260509145644 77 203 0.0 1.7 0.00 0.00 0.00 98 996.2
20260509145404 77 195 0.0 1.7 0.00 0.00 0.00 98 996.1
20260509144643 76 196 0.0 0.9 0.00 0.00 0.00 98 996.2
20260509144402 76 196 0.0 1.7 0.00 0.00 0.00 98 996.1
20260509143900 76 196 0.0 1.7 0.00 0.00 0.00 98 995.9
20260509143138 76 196 0.0 1.7 0.00 0.00 0.00 98 995.9
20260509142638 76 174 0.0 0.9 0.00 0.00 0.00 98 995.9
20260509142137 76 174 0.0 0.9 0.00 0.00 0.00 98 995.7
20260509141637 76 174 0.0 0.9 0.00 0.00 0.00 98 995.6
20260509141135 76 174 0.0 0.9 0.00 0.00 0.00 98 995.5
20260509140635 76 251 0.0 0.9 0.00 0.00 0.00 98 995.5
20260509140130 76 251 0.9 1.7 0.00 0.00 0.00 98 995.6
20260509135631 76 207 0.0 1.7 0.00 0.00 0.00 98 995.9
20260509135359 76 221 0.0 0.9 0.00 0.00 0.00 98 995.9
20260509134630 76 223 0.0 0.0 0.00 0.00 0.00 98 995.8
20260509134128 76 223 0.0 0.9 0.00 0.00 0.00 98 996.0
20260509133629 76 223 0.0 0.9 0.00 0.00 0.00 98 996.2
20260509133127 75 109 0.0 0.9 0.00 0.00 0.00 99 996.3
20260509132627 75 109 0.0 0.9 0.00 0.00 0.00 99 996.1
20260509132127 75 179 0.0 0.9 0.00 0.00 0.00 99 996.1
20260509131626 75 179 0.0 0.9 0.00 0.00 0.00 99 996.2
20260509131129 75 179 0.0 0.9 0.00 0.00 0.00 99 996.2
20260509130624 75 179 0.0 0.9 0.00 0.00 0.00 98 996.2
20260509130124 75 179 0.0 0.0 0.00 0.00 0.00 98 996.1
20260509125624 75 179 0.0 0.0 0.00 0.00 0.00 99 996.1
20260509125122 75 179 0.0 0.0 0.00 0.00 0.00 98 996.2
20260509124623 75 179 0.0 0.0 0.00 0.00 0.00 99 996.0
20260509124122 74 179 0.0 0.0 0.00 0.00 0.00 99 996.0
20260509124114 74 179 0.0 0.0 0.00 0.00 0.00 98 996.1
20260509123121 74 0 0.0 0.0 0.00 0.00 0.00 98 996.1
20260509122618 74 0 0.0 0.0 0.00 0.00 0.00 98 996.0
20260509122116 74 0 0.0 0.0 0.00 0.00 0.00 98 996.1
20260509122059 74 0 0.0 0.0 0.00 0.00 0.00 98 996.0
20260509121111 74 0 0.0 0.0 0.00 0.00 0.00 98 996.0
20260509120610 74 179 0.0 0.0 0.00 0.00 0.00 98 996.0
20260509120107 74 179 0.0 0.0 0.00 0.00 0.00 98 995.8
20260509115602 74 179 0.0 0.9 0.00 0.00 0.00 98 995.7
20260509115103 74 179 0.9 2.6 0.00 0.00 0.00 98 995.5
20260509114603 74 179 0.9 2.6 0.00 0.00 0.00 98 995.5
20260509114102 74 201 0.0 2.6 0.00 0.00 0.00 98 995.5
20260509113602 74 205 0.0 0.0 0.00 0.00 0.00 98 995.5
20260509113059 74 205 0.0 0.0 0.00 0.00 0.00 98 995.6
20260509112600 74 205 0.0 0.0 0.00 0.00 0.00 98 995.5
20260509112058 74 205 0.0 0.0 0.00 0.00 0.00 98 995.5
20260509111825 74 205 0.0 0.0 0.00 0.00 0.00 98 995.6
20260509111059 74 205 0.0 0.0 0.00 0.00 0.00 98 995.7
20260509110558 74 205 0.0 0.9 0.00 0.00 0.00 98 995.6
20260509110059 74 205 0.0 0.9 0.00 0.00 0.00 98 995.6
20260509105821 74 205 0.0 0.0 0.00 0.00 0.00 98 995.6
20260509105054 74 205 0.0 0.0 0.00 0.00 0.00 98 995.7
20260509104552 74 205 0.0 0.0 0.00 0.00 0.00 98 995.7
20260509104049 74 205 0.0 0.0 0.00 0.00 0.00 98 995.8
20260509104031 74 205 0.0 0.0 0.00 0.00 0.00 98 995.8
20260509103050 74 0 0.0 0.0 0.00 0.00 0.00 98 995.9
20260509102551 74 204 0.0 0.0 0.00 0.00 0.00 98 995.7
20260509102050 74 204 0.0 0.0 0.00 0.00 0.00 98 995.5
20260509101550 74 204 0.0 0.0 0.00 0.00 0.00 98 995.4
20260509101050 74 0 0.0 0.0 0.00 0.00 0.00 98 995.4
20260509100550 74 204 0.0 0.0 0.00 0.00 0.00 98 995.3
20260509100046 74 0 0.0 0.0 0.00 0.00 0.00 97 995.2
20260509095548 74 0 0.0 0.0 0.00 0.00 0.00 97 995.1
20260509095046 74 204 0.0 0.0 0.00 0.00 0.00 97 995.0
20260509094546 74 204 0.0 0.0 0.00 0.00 0.00 97 995.1
20260509094046 74 204 0.0 0.0 0.00 0.00 0.00 97 995.0
20260509093546 74 205 0.0 0.0 0.00 0.00 0.00 97 995.1
20260509093047 74 205 0.0 0.0 0.00 0.00 0.00 97 995.3
20260509092546 74 205 0.0 0.0 0.00 0.00 0.00 97 995.4
20260509092046 74 0 0.0 0.0 0.00 0.00 0.00 97 995.4
20260509091546 74 0 0.0 0.0 0.00 0.00 0.00 97 995.4
20260509091048 74 204 0.0 0.0 0.00 0.00 0.00 97 995.3
20260509090546 74 204 0.0 0.0 0.00 0.00 0.00 97 995.3
20260509090046 74 204 0.0 0.0 0.00 0.00 0.00 97 995.5
20260509085546 74 204 0.0 0.0 0.00 0.00 0.00 97 995.5
20260509085316 74 205 0.0 0.0 0.00 0.00 0.00 97 995.5
20260509084546 74 205 0.0 0.0 0.00 0.00 0.00 97 995.6
20260509084046 74 205 0.0 0.0 0.00 0.00 0.00 97 995.7
20260509083546 74 205 0.0 0.0 0.00 0.00 0.00 97 995.6
20260509083046 74 205 0.0 0.0 0.00 0.00 0.00 97 995.6
20260509082546 74 205 0.0 0.0 0.00 0.00 0.00 97 995.7
20260509082046 74 205 0.0 0.0 0.00 0.00 0.00 97 995.8
20260509081546 74 205 0.0 0.0 0.00 0.00 0.00 97 995.8
20260509081045 74 205 0.0 0.0 0.00 0.00 0.00 97 995.7
20260509080545 74 0 0.0 0.0 0.00 0.00 0.00 97 995.6
20260509080046 74 205 0.0 0.0 0.00 0.00 0.00 97 995.5
20260509075546 74 205 0.0 0.0 0.00 0.00 0.00 97 995.6
20260509075048 74 205 0.0 0.0 0.00 0.00 0.00 96 995.6
20260509074548 74 205 0.0 0.0 0.00 0.00 0.00 96 995.6
20260509074048 74 205 0.0 0.0 0.00 0.00 0.00 96 995.5
20260509073549 74 205 0.0 0.0 0.00 0.00 0.00 96 995.3
20260509073047 74 205 0.0 0.0 0.00 0.00 0.00 96 995.2
20260509072550 74 205 0.0 0.0 0.00 0.00 0.00 96 995.3
20260509072305 74 205 0.0 0.0 0.00 0.00 0.00 96 995.4
20260509071801 74 205 0.0 0.0 0.00 0.00 0.00 96 995.5
20260509071306 74 205 0.0 0.0 0.00 0.00 0.00 96 995.4
20260509070542 74 205 0.0 0.0 0.00 0.00 0.00 96 995.4
20260509070043 74 205 0.0 0.0 0.00 0.00 0.00 96 995.5
20260509065541 74 205 0.0 0.0 0.00 0.00 0.00 96 995.5
20260509065041 74 205 0.0 0.0 0.00 0.00 0.00 96 995.5
20260509064542 74 205 0.0 0.9 0.00 0.00 0.00 96 995.5
20260509064042 74 67 0.0 0.9 0.00 0.00 0.00 96 995.5
20260509063538 74 67 0.0 0.9 0.00 0.00 0.00 96 995.5
20260509063038 74 67 0.0 0.9 0.00 0.00 0.00 96 995.5
20260509062539 74 341 0.0 0.9 0.00 0.00 0.00 96 995.4
20260509062038 74 341 0.0 0.0 0.00 0.00 0.00 96 995.6
20260509061538 74 341 0.0 0.0 0.00 0.00 0.00 96 995.7
20260509061039 74 341 0.0 0.0 0.00 0.00 0.00 96 995.8
20260509060538 74 342 0.0 0.0 0.00 0.00 0.00 96 995.9
20260509060256 74 342 0.0 0.0 0.00 0.00 0.00 96 995.9
20260509055801 74 342 0.0 0.0 0.00 0.00 0.00 96 995.9
20260509055038 74 342 0.0 0.0 0.00 0.00 0.00 96 995.8
20260509054539 74 342 0.0 0.9 0.00 0.00 0.00 96 996.0
20260509054038 74 342 0.0 0.9 0.00 0.00 0.00 95 996.0
20260509053538 74 342 0.0 0.9 0.00 0.00 0.00 95 996.0
20260509053038 74 342 0.0 0.9 0.00 0.00 0.00 95 995.9
20260509052537 74 343 0.0 0.0 0.00 0.00 0.00 95 996.0
20260509052306 74 343 0.0 0.0 0.00 0.00 0.00 95 996.0
20260509051536 74 343 0.0 0.9 0.00 0.00 0.00 95 996.0
20260509051036 74 343 0.0 0.9 0.00 0.00 0.00 95 996.0
20260509050532 74 0 0.0 2.6 0.00 0.00 0.00 95 995.9
20260509050029 74 0 0.0 2.6 0.00 0.00 0.00 95 995.9
20260509045525 74 0 0.0 1.7 0.00 0.00 0.00 95 995.9
20260509045240 74 0 0.0 1.7 0.00 0.00 0.00 95 996.0
20260509044743 74 0 0.0 0.0 0.00 0.00 0.00 95 996.0
20260509044023 74 0 0.0 0.0 0.00 0.00 0.00 95 996.1
20260509043745 74 0 0.0 0.0 0.00 0.00 0.00 95 996.1
20260509043020 74 0 0.0 0.0 0.00 0.00 0.00 95 995.9
20260509042520 74 0 0.0 0.0 0.00 0.00 0.00 95 995.8
20260509042516 74 0 0.0 0.0 0.00 0.00 0.00 94 996.0
20260509041519 74 0 0.0 0.0 0.00 0.00 0.00 94 996.1
20260509041019 74 0 0.0 0.0 0.00 0.00 0.00 94 996.0
20260509040514 74 0 0.0 0.0 0.00 0.00 0.00 94 996.0
20260509040014 74 0 0.0 0.0 0.00 0.00 0.00 94 996.0
20260509035514 74 0 0.0 1.7 0.00 0.00 0.00 94 995.8
20260509035014 74 0 0.0 2.6 0.00 0.00 0.00 94 995.7
20260509034516 74 0 0.0 2.6 0.00 0.00 0.00 94 995.7
20260509034015 74 0 0.0 0.9 0.00 0.00 0.00 94 995.7
20260509033516 74 0 0.0 1.7 0.00 0.00 0.00 94 995.8
20260509033014 74 0 0.0 1.7 0.00 0.00 0.00 94 995.8
20260509032515 74 0 0.0 1.7 0.00 0.00 0.00 94 995.7
20260509032234 74 0 0.0 1.7 0.00 0.00 0.00 94 995.7
20260509031514 74 0 0.0 0.9 0.00 0.00 0.00 93 995.7
20260509031015 74 0 0.0 0.9 0.00 0.00 0.00 93 995.6
20260509030514 74 0 0.0 1.7 0.00 0.00 0.00 93 995.6
20260509030014 74 0 0.0 1.7 0.00 0.00 0.00 93 995.6
20260509025516 74 0 0.0 1.7 0.00 0.00 0.00 93 995.4
20260509025014 74 0 0.0 1.7 0.00 0.00 0.00 93 995.2
20260509024515 74 0 0.0 0.0 0.00 0.00 0.00 93 995.2
20260509024014 74 0 0.0 0.0 0.00 0.00 0.00 93 995.2
20260509023514 74 0 0.0 0.0 0.00 0.00 0.00 93 995.2
20260509023241 74 0 0.0 0.0 0.00 0.00 0.00 93 995.3
20260509022514 74 0 0.0 0.0 0.00 0.00 0.00 92 995.2
20260509022015 74 0 0.0 0.0 0.00 0.00 0.00 92 995.2
20260509021515 75 0 0.0 0.9 0.00 0.00 0.00 92 995.1
20260509021014 75 0 0.0 0.9 0.00 0.00 0.00 92 995.1
20260509020515 75 0 0.0 0.9 0.00 0.00 0.00 92 995.0
20260509020014 75 0 0.0 0.9 0.00 0.00 0.00 92 995.2
20260509015514 75 0 0.0 0.9 0.00 0.00 0.00 92 995.1
20260509015236 75 0 0.0 0.9 0.00 0.00 0.00 91 995.1
20260509014514 75 79 0.0 0.9 0.00 0.00 0.00 91 995.0
20260509014015 75 0 0.0 0.9 0.00 0.00 0.00 91 995.1
20260509013514 76 0 0.0 4.3 0.00 0.00 0.00 91 995.2
20260509013015 76 0 0.0 4.3 0.00 0.00 0.00 91 995.2
20260509012513 76 0 0.0 0.0 0.00 0.00 0.00 90 995.1
20260509012015 76 0 0.0 0.0 0.00 0.00 0.00 90 994.9
20260509011511 76 0 0.0 1.7 0.00 0.00 0.00 90 994.8
20260509011005 76 0 0.0 1.7 0.00 0.00 0.00 90 994.8
20260509010506 76 0 0.0 0.9 0.00 0.00 0.00 90 994.8
20260509010230 76 0 0.0 0.9 0.00 0.00 0.00 89 994.7
20260509005506 76 0 0.0 0.0 0.00 0.00 0.00 89 994.6
20260509005006 76 0 0.0 0.9 0.00 0.00 0.00 89 994.6
20260509004506 76 0 0.0 0.9 0.00 0.00 0.00 89 994.6
20260509004006 76 0 0.0 0.0 0.00 0.00 0.00 89 994.4
20260509003506 76 0 0.0 0.9 0.00 0.00 0.00 89 994.5
20260509003006 77 0 0.0 0.9 0.00 0.00 0.00 89 994.6
20260509002726 77 0 0.0 0.0 0.00 0.00 0.00 89 994.7
20260509002057 77 0 0.0 0.0 0.00 0.00 0.00 88 994.8
20260509001001 77 0 0.0 0.9 0.00 0.00 0.00 88 994.9
20260509000503 77 0 0.0 0.9 0.00 0.00 0.00 88 994.9
20260509000227 77 0 0.0 0.9 0.00 0.00 0.00 88 994.8
20260508235503 77 0 0.0 0.9 0.00 0.00 0.00 88 995.0
20260508235002 78 0 0.0 0.9 0.00 0.00 0.00 88 994.9
20260508234503 78 0 0.0 0.0 0.00 0.00 0.00 87 994.9
20260508233958 78 0 0.0 0.9 0.00 0.00 0.00 87 995.0
20260508233458 78 0 0.0 3.5 0.00 0.00 0.00 87 995.0
20260508232959 78 80 0.0 3.5 0.00 0.00 0.00 87 995.0
20260508232457 78 0 0.0 0.9 0.00 0.00 0.00 87 994.9
20260508231958 78 28 0.0 0.9 0.00 0.00 0.00 86 994.9
20260508231459 78 0 0.0 0.9 0.00 0.00 0.00 86 994.9
20260508230959 78 0 0.0 0.9 0.00 0.00 0.00 86 995.0
20260508230459 79 93 0.0 0.9 0.00 0.00 0.00 86 994.9
20260508225959 79 0 0.0 1.7 0.00 0.00 0.00 86 994.9
20260508225456 79 0 0.0 1.7 0.00 0.00 0.00 86 994.9
20260508224955 79 0 0.0 0.9 0.00 0.00 0.00 85 994.9
20260508224456 79 0 0.0 0.9 0.00 0.00 0.00 85 994.9